Location: Limerick
(52.6800°N, 8.6400°W)
Time: 08:19:07
(UTC+00:00)

Amateur Radio Satellites - All Passes

Search period start: 12 December 2017 07:49
Search period end: 13 December 2017 07:49
Location: Limerick, 52.6800°N, 8.6400°W

Satellite Date Start Highest point End Downlink Frequencies (MHz)
Time Altitude Azimuth
NO-84 12 Dec 07:50:04 07:51:26 12° 131° (SE) 07:52:50 435.350 FM
YUBILEINY 12 Dec 07:53:47 07:57:06 12° 328° (NNW) 08:00:25 435.215
AO-73 12 Dec 07:58:21 08:01:37 21° 91° (E) 08:04:56 145.935
XW-2D 12 Dec 07:58:54 08:02:01 24° 297° (WNW) 08:05:06 145.860 - 145.880
CUTE 1.7 + AOD 2 12 Dec 08:04:10 08:08:29 75° 287° (WNW) 08:12:46 437.475
XW-2A 12 Dec 08:06:45 08:09:56 34° 97° (E) 08:13:06 145.665 - 145.685
XW-2B 12 Dec 08:14:59 08:17:40 18° 300° (WNW) 08:20:20 145.730 - 145.750
KAITUO 1B 12 Dec 08:15:27 08:18:25 22° 297° (WNW) 08:21:22 145.475/437.950
AAUSAT CUBESAT 2 12 Dec 08:16:02 08:20:04 45° 98° (E) 08:24:05 437.432
NUDT-PHONESAT 12 Dec 08:17:23 08:20:17 21° 297° (WNW) 08:23:11 437.300
CUBEBUG 2 12 Dec 08:19:42 08:23:55 84° 286° (WNW) 08:28:12 437.445
UWE-3 12 Dec 08:25:53 08:30:07 69° 103° (ESE) 08:34:27 435.000/436.395/437.385
XW-2F 12 Dec 08:30:20 08:32:26 14° 302° (WNW) 08:34:33 145.980 - 146.000
AO-7 12 Dec 08:42:33 08:46:17 14° 342° (NNW) 08:50:03 .
XW-2C 12 Dec 08:43:32 08:44:34 11° 306° (NW) 08:45:37 145.795 - 145.815
HO-68 12 Dec 08:46:18 08:53:23 63° 296° (WNW) 09:00:25 435.675
ZACube-1 12 Dec 08:57:56 09:02:15 79° 105° (ESE) 09:06:38 437.345
O/OREOS (USA 219) 12 Dec 08:59:24 09:03:10 26° 105° (ESE) 09:06:57 437.305
TIGRISAT 12 Dec 09:00:53 09:05:04 55° 70° (ENE) 09:09:15 435.000
FO-29 12 Dec 09:02:29 09:09:50 44° 266° (W) 09:17:17 435.910
UNISAT 6 12 Dec 09:03:14 09:07:30 63° 71° (ENE) 09:11:43 437.425
PRISM 12 Dec 09:04:08 09:07:33 25° 62° (ENE) 09:10:58 437.425
AO-85 12 Dec 09:05:29 09:08:04 14° 248° (WSW) 09:10:44 145.980
CUTE-I 12 Dec 09:20:11 09:23:16 16° 311° (NW) 09:26:23 437.470
Oscar 11 12 Dec 09:23:04 09:27:28 84° 106° (ESE) 09:31:49 .
SEEDS 12 Dec 09:23:37 09:27:01 23° 299° (WNW) 09:30:23 437.485
NO-84 12 Dec 09:24:47 09:27:58 57° 152° (SSE) 09:31:26 435.350 FM
AO-73 12 Dec 09:33:58 09:38:10 55° 289° (WNW) 09:42:26 145.935
EO-88 12 Dec 09:37:27 09:39:29 14° 89° (E) 09:41:30 145.990 - 145.960
XW-2A 12 Dec 09:39:47 09:42:29 22° 296° (WNW) 09:45:11 145.665 - 145.685
CUTE 1.7 + AOD 2 12 Dec 09:41:39 09:43:34 13° 306° (NW) 09:45:29 437.475
DELFI C3 12 Dec 09:46:49 09:50:29 34° 96° (E) 09:54:06 145.870
AAUSAT CUBESAT 2 12 Dec 09:51:54 09:55:19 25° 298° (WNW) 09:58:42 437.432
CUBEBUG 2 12 Dec 09:57:51 09:59:55 14° 305° (NW) 10:02:00 437.445
UWE-3 12 Dec 10:03:15 10:06:10 18° 301° (WNW) 10:09:07 435.000/436.395/437.385
NANOSAT C BR1 12 Dec 10:07:06 10:09:34 15° 56° (NE) 10:12:02 145.865
AIST 2D 12 Dec 10:13:47 10:17:02 36° 69° (ENE) 10:20:19 435.315
EO-79 12 Dec 10:19:29 10:22:38 21° 60° (ENE) 10:25:48 145.935-145.965
AO-7 12 Dec 10:32:46 10:35:37 12° 10° (N) 10:38:29 .
Max Valier Satellite 12 Dec 10:34:38 10:38:22 78° 104° (ESE) 10:42:06 145.860
HO-68 12 Dec 10:35:01 10:39:53 20° 318° (NW) 10:44:44 435.675
ZACube-1 12 Dec 10:35:18 10:38:01 17° 303° (WNW) 10:40:47 437.345
O/OREOS (USA 219) 12 Dec 10:37:50 10:42:19 52° 305° (NW) 10:46:49 437.305
PRISM 12 Dec 10:38:36 10:42:37 45° 261° (W) 10:46:38 437.425
TIGRISAT 12 Dec 10:38:55 10:42:06 20° 269° (W) 10:45:18 435.000
POLYITAN 1 12 Dec 10:40:57 10:44:38 31° 64° (ENE) 10:48:21 437.675
UNISAT 6 12 Dec 10:41:40 10:44:38 18° 270° (W) 10:47:34 437.425
FO-29 12 Dec 10:56:34 10:56:57 10° 288° (WNW) 10:57:20 435.910
Oscar 11 12 Dec 11:00:20 11:03:01 16° 304° (NW) 11:05:44 .
NO-84 12 Dec 11:01:54 11:05:15 61° 352° (N) 11:08:57 435.350 FM
ESTCUBE 1 12 Dec 11:02:58 11:05:59 17° 88° (E) 11:09:00 437.505/2401.250
QB50P2 12 Dec 11:05:52 11:09:58 56° 71° (ENE) 11:14:06 145.880/145.840
EO-88 12 Dec 11:09:52 11:13:31 62° 287° (WNW) 11:17:08 145.990 - 145.960
DUCHIFAT 1 12 Dec 11:15:59 11:20:01 51° 69° (ENE) 11:24:04 145.980
DELFI C3 12 Dec 11:21:43 11:25:09 28° 295° (WNW) 11:28:33 145.870
NANOSAT C BR1 12 Dec 11:40:32 11:44:43 84° 254° (WSW) 11:48:55 145.865
AIST 2D 12 Dec 11:47:34 11:50:19 21° 268° (W) 11:53:05 435.315
LO-87 12 Dec 11:49:55 11:53:25 55° 101° (E) 11:56:54 145.935 - 145.965
EO-79 12 Dec 11:53:56 11:58:04 56° 259° (W) 12:02:13 145.935-145.965
AO-91 12 Dec 11:54:37 11:58:27 24° 62° (ENE) 12:02:00 145.960
Oscar 19 12 Dec 11:56:51 12:01:17 30° 60° (ENE) 12:05:45 437.125/150
YUBILEINY 12 Dec 11:57:09 12:02:12 16° 39° (NE) 12:07:12 435.215
BUGSAT 1 12 Dec 12:08:24 12:12:17 46° 69° (ENE) 12:16:10 437.445
Max Valier Satellite 12 Dec 12:09:45 12:11:41 14° 302° (WNW) 12:13:35 145.860
Gurwin Techsat 1B 12 Dec 12:15:01 12:19:42 33° 60° (ENE) 12:24:24 435.225
POLYITAN 1 12 Dec 12:16:32 12:20:22 35° 263° (W) 12:24:15 437.675
SPROUT 12 Dec 12:16:36 12:19:56 22° 92° (E) 12:23:16 437.525
AO-7 12 Dec 12:19:22 12:25:28 23° 37° (NE) 12:31:35 .
O/OREOS (USA 219) 12 Dec 12:20:23 12:22:48 14° 328° (NNW) 12:25:14 437.305
ESTCUBE 1 12 Dec 12:38:45 12:43:18 73° 289° (WNW) 12:47:50 437.505/2401.250
NO-84 12 Dec 12:39:13 12:42:47 71° 14° (NNE) 12:46:40 435.350 FM
QB50P2 12 Dec 12:43:04 12:46:06 19° 269° (W) 12:49:10 145.880/145.840
VELOX 1 12 Dec 12:49:02 12:52:53 28° 94° (E) 12:56:42 145.980
DUCHIFAT 1 12 Dec 12:52:47 12:55:57 21° 268° (W) 12:59:09 145.980
ISS 12 Dec 13:05:35 13:07:17 13° 141° (SE) 13:08:59 437.550
ITAMSAT 1 12 Dec 13:05:50 13:07:48 12° 45° (NE) 13:09:47 435.822/435.867
NANOSAT C BR1 12 Dec 13:19:49 13:21:07 11° 275° (W) 13:22:25 145.865
LO-87 12 Dec 13:24:13 13:26:28 16° 300° (WNW) 13:28:43 145.935 - 145.965
AO-91 12 Dec 13:29:50 13:34:41 57° 259° (W) 13:39:05 145.960
M-CUBED/EXP-1 PRIME 12 Dec 13:32:31 13:36:19 28° 54° (NE) 13:40:15 437.505
Oscar 19 12 Dec 13:35:23 13:40:23 52° 259° (W) 13:45:28 437.125/150
BUGSAT 1 12 Dec 13:44:43 13:47:52 22° 267° (W) 13:51:01 437.445
UKube-1 12 Dec 13:45:01 13:47:47 16° 89° (E) 13:50:33 .
SPROUT 12 Dec 13:51:59 13:56:05 49° 291° (WNW) 14:00:11 437.525
YUBILEINY 12 Dec 13:53:14 14:01:48 49° 68° (ENE) 14:10:15 435.215
DX 1 12 Dec 13:53:53 13:57:43 29° 95° (E) 14:01:31 434.975-435.025
Gurwin Techsat 1B 12 Dec 13:54:19 13:59:29 50° 260° (W) 14:04:41 435.225
50 SAT 12 Dec 13:56:59 13:59:47 27° 97° (E) 14:02:32 437.505
nSIGHT-1 12 Dec 14:08:36 14:11:35 35° 156° (SSE) 14:14:34 .
AO-7 12 Dec 14:08:40 14:16:49 64° 60° (ENE) 14:25:02 .
NO-84 12 Dec 14:16:26 14:20:00 43° 213° (SSW) 14:23:49 435.350 FM
ESTCUBE 1 12 Dec 14:17:06 14:19:21 14° 308° (NW) 14:21:35 437.505/2401.250
MOZHAYETS 4 12 Dec 14:21:45 14:22:42 11° 83° (E) 14:23:39
VELOX 1 12 Dec 14:25:17 14:29:28 41° 294° (WNW) 14:33:36 145.980
ISS 12 Dec 14:40:01 14:43:10 44° 160° (SSE) 14:46:20 437.550
ITAMSAT 1 12 Dec 14:41:08 14:46:11 51° 66° (ENE) 14:51:14 435.822/435.867
ITUPSAT 1 12 Dec 14:43:26 14:45:09 12° 85° (E) 14:46:53 437.325
RS-15 12 Dec 14:59:40 15:10:48 43° 110° (ESE) 15:21:47 29.354- 29.394
M-CUBED/EXP-1 PRIME 12 Dec 15:06:12 15:10:26 50° 255° (WSW) 15:14:55 437.505
DOVE 4 12 Dec 15:19:00 15:23:21 27° 61° (ENE) 15:27:36 437.250
UKube-1 12 Dec 15:19:59 15:24:18 70° 289° (WNW) 15:28:35 .
50 SAT 12 Dec 15:29:05 15:31:39 23° 295° (WNW) 15:34:12 437.505
DX 1 12 Dec 15:29:56 15:34:01 39° 294° (WNW) 15:38:03 434.975-435.025
CUBESAT XI-V 12 Dec 15:36:05 15:38:53 15° 86° (E) 15:41:39 437.345
nSIGHT-1 12 Dec 15:44:21 15:47:35 73° 174° (S) 15:50:48 .
HO-68 12 Dec 15:49:58 15:54:02 16° 37° (NE) 15:58:04 435.675
CUTE-I 12 Dec 15:50:00 15:52:54 15° 48° (NE) 15:55:49 437.470
YUBILEINY 12 Dec 15:50:18 15:58:44 51° 271° (W) 16:07:05 435.215
BEESAT 12 Dec 15:52:41 15:57:16 45° 99° (E) 16:01:51 436.000
NO-84 12 Dec 15:55:49 15:56:36 10° 230° (SW) 15:57:24 435.350 FM
MOZHAYETS 4 12 Dec 15:56:06 16:00:44 70° 103° (ESE) 16:05:21
AO-7 12 Dec 16:02:21 16:10:02 40° 263° (W) 16:17:48 .
XW-2F 12 Dec 16:09:38 16:11:09 12° 56° (NE) 16:12:42 145.980 - 146.000
ISS 12 Dec 16:16:12 16:19:30 76° 179° (S) 16:22:48 437.550
ITUPSAT 1 12 Dec 16:19:02 16:23:50 74° 104° (ESE) 16:28:36 437.325
XW-2C 12 Dec 16:21:15 16:23:39 16° 59° (ENE) 16:26:04 145.795 - 145.815
ITAMSAT 1 12 Dec 16:21:21 16:25:54 30° 266° (W) 16:30:27 435.822/435.867
SO-50 12 Dec 16:30:47 16:34:41 30° 120° (ESE) 16:38:38 436.795
LilacSat-2 12 Dec 16:52:56 16:56:21 32° 66° (ENE) 16:59:50 437.200
DOVE 4 12 Dec 16:55:30 17:00:44 60° 260° (W) 17:05:49 437.250
UKube-1 12 Dec 16:57:43 16:59:33 13° 308° (NW) 17:01:22 .
RS-15 12 Dec 17:10:06 17:22:31 81° 316° (NW) 17:34:42 29.354- 29.394
XW-2D 12 Dec 17:10:45 17:14:23 46° 70° (ENE) 17:18:05 145.860 - 145.880
SEEDS 12 Dec 17:11:45 17:13:30 12° 54° (NE) 17:15:16 437.485
CUBESAT XI-V 12 Dec 17:12:08 17:16:54 86° 286° (WNW) 17:21:37 437.345
nSIGHT-1 12 Dec 17:20:31 17:23:41 55° 195° (SSW) 17:26:51 .
STARS 12 Dec 17:21:06 17:23:10 13° 87° (E) 17:25:15 437.465
O/OREOS (USA 219) 12 Dec 17:23:37 17:27:26 26° 44° (NE) 17:31:13 437.305
KAITUO 1B 12 Dec 17:26:02 17:29:38 48° 70° (ENE) 17:33:18 145.475/437.950
XW-2B 12 Dec 17:26:23 17:30:09 64° 73° (ENE) 17:33:57 145.730 - 145.750
CUTE-I 12 Dec 17:26:42 17:32:00 63° 69° (ENE) 17:37:19 437.470
NUDT-PHONESAT 12 Dec 17:27:11 17:30:44 46° 70° (ENE) 17:34:20 437.300
CUTE 1.7 + AOD 2 12 Dec 17:27:25 17:30:48 23° 61° (ENE) 17:34:13 437.475
BEESAT 12 Dec 17:30:45 17:34:55 30° 299° (WNW) 17:39:03 436.000
HO-68 12 Dec 17:33:21 17:40:12 49° 60° (ENE) 17:47:02 435.675
MOZHAYETS 4 12 Dec 17:34:03 17:37:26 20° 302° (WNW) 17:40:49
AAUSAT CUBESAT 2 12 Dec 17:39:36 17:40:42 11° 52° (NE) 17:41:48 437.432
XW-2F 12 Dec 17:40:52 17:44:38 86° 76° (ENE) 17:48:28 145.980 - 146.000
CUBEBUG 2 12 Dec 17:47:55 17:51:13 23° 62° (ENE) 17:54:29 437.445
YUBILEINY 12 Dec 17:50:03 17:53:17 13° 296° (WNW) 17:56:30 435.215
ISS 12 Dec 17:52:40 17:55:52 47° 199° (SSW) 17:59:02 437.550
XW-2C 12 Dec 17:53:39 17:57:24 65° 258° (WSW) 18:01:13 145.795 - 145.815
UWE-3 12 Dec 17:53:58 17:56:37 17° 58° (ENE) 17:59:15 435.000/436.395/437.385
ITUPSAT 1 12 Dec 17:57:41 18:01:11 21° 304° (NW) 18:04:41 437.325
KKS-1 12 Dec 18:05:13 18:09:40 70° 104° (ESE) 18:14:05 437.445
SO-50 12 Dec 18:10:30 18:14:55 56° 320° (NW) 18:19:27 436.795
ZACube-1 12 Dec 18:24:44 18:27:34 18° 59° (ENE) 18:30:26 437.345
LilacSat-2 12 Dec 18:27:20 18:30:39 28° 265° (W) 18:34:01 437.200
DOVE 4 12 Dec 18:38:21 18:39:23 11° 279° (W) 18:40:26 437.250
XW-2A 12 Dec 18:43:10 18:46:08 30° 67° (ENE) 18:49:09 145.665 - 145.685
SEEDS 12 Dec 18:44:13 18:48:26 73° 73° (ENE) 18:52:42 437.485
XW-2D 12 Dec 18:45:59 18:48:48 20° 269° (W) 18:51:38 145.860 - 145.880
Oscar 11 12 Dec 18:48:39 18:51:49 20° 59° (ENE) 18:54:59 .
CUBESAT XI-V 12 Dec 18:50:42 18:53:36 16° 306° (NW) 18:56:29 437.345
STARS 12 Dec 18:55:46 19:00:11 89° 273° (W) 19:04:32 437.465
nSIGHT-1 12 Dec 18:57:06 18:59:27 19° 214° (SW) 19:01:46 .
AO-73 12 Dec 18:59:19 19:02:58 31° 65° (ENE) 19:06:39 145.935
KAITUO 1B 12 Dec 19:01:11 19:03:53 19° 269° (W) 19:06:35 145.475/437.950
NUDT-PHONESAT 12 Dec 19:02:10 19:04:49 19° 269° (W) 19:07:30 437.300
CUTE 1.7 + AOD 2 12 Dec 19:02:14 19:06:22 50° 261° (W) 19:10:34 437.475
XW-2B 12 Dec 19:02:35 19:04:44 15° 272° (W) 19:06:55 145.730 - 145.750
O/OREOS (USA 219) 12 Dec 19:02:45 19:07:13 60° 246° (WSW) 19:11:38 437.305
CUTE-I 12 Dec 19:08:06 19:12:29 25° 269° (W) 19:16:53 437.470
AAUSAT CUBESAT 2 12 Dec 19:11:12 19:15:20 64° 72° (ENE) 19:19:30 437.432
XW-2F 12 Dec 19:18:17 19:19:20 11° 274° (W) 19:20:23 145.980 - 146.000
HO-68 12 Dec 19:21:06 19:27:59 47° 261° (W) 19:34:55 435.675
CUBEBUG 2 12 Dec 19:23:31 19:27:37 49° 261° (W) 19:31:40 437.445
RS-15 12 Dec 19:24:59 19:36:51 49° 347° (NNW) 19:48:18 29.354- 29.394
UWE-3 12 Dec 19:28:27 19:32:36 73° 258° (WSW) 19:36:46 435.000/436.395/437.385
ISS 12 Dec 19:29:53 19:31:47 15° 218° (SW) 19:33:41 437.550
KKS-1 12 Dec 19:42:36 19:45:47 19° 303° (WNW) 19:48:56 437.445
STRAND 1 12 Dec 19:46:44 19:51:35 42° 98° (E) 19:56:25 437.568
PCSat 12 Dec 19:47:27 19:52:33 44° 118° (ESE) 19:57:41 145.827
Max Valier Satellite 12 Dec 19:47:58 19:49:01 11° 55° (NE) 19:50:03 145.860
SO-50 12 Dec 19:52:43 19:56:17 22° 344° (NNW) 19:59:54 436.795
ZACube-1 12 Dec 19:59:20 20:03:26 65° 258° (WSW) 20:07:36 437.345
FO-29 12 Dec 20:06:16 20:12:29 30° 88° (E) 20:18:06 435.910
XW-2A 12 Dec 20:16:09 20:18:53 23° 266° (W) 20:21:38 145.665 - 145.685
EO-88 12 Dec 20:20:33 20:22:52 16° 60° (ENE) 20:25:12 145.990 - 145.960
SEEDS 12 Dec 20:22:05 20:24:38 15° 272° (W) 20:27:12 437.485
Oscar 11 12 Dec 20:23:16 20:27:33 63° 259° (W) 20:31:53 .
STARS 12 Dec 20:33:20 20:35:54 15° 306° (NW) 20:38:26 437.465
AO-73 12 Dec 20:35:26 20:39:11 33° 264° (W) 20:42:58 145.935
DELFI C3 12 Dec 20:37:08 20:40:56 44° 69° (ENE) 20:44:46 145.870
AAUSAT CUBESAT 2 12 Dec 20:48:25 20:51:12 17° 271° (W) 20:54:00 437.432
BEESAT 3 12 Dec 21:01:15 21:04:30 24° 118° (ESE) 21:07:45 437.485
Max Valier Satellite 12 Dec 21:18:32 21:22:11 82° 74° (ENE) 21:25:53 145.860
STRAND 1 12 Dec 21:26:06 21:30:44 35° 298° (WNW) 21:35:19 437.568
PCSat 12 Dec 21:30:45 21:35:59 47° 319° (NW) 21:41:15 145.827
SO-50 12 Dec 21:34:52 21:38:14 19° 8° (N) 21:41:37 436.795
BEESAT 2 12 Dec 21:35:46 21:38:28 17° 115° (ESE) 21:41:10 435.950
RS-15 12 Dec 21:40:20 21:52:12 53° 20° (NNE) 22:03:28 29.354- 29.394
FO-29 12 Dec 21:50:55 21:58:14 70° 292° (WNW) 22:04:41 435.910
EO-88 12 Dec 21:52:31 21:56:07 59° 259° (W) 21:59:45 145.990 - 145.960
ESTCUBE 1 12 Dec 22:07:38 22:11:37 32° 63° (ENE) 22:15:38 437.505/2401.250
DELFI C3 12 Dec 22:12:42 22:15:52 22° 268° (W) 22:19:04 145.870
PRISM 12 Dec 22:14:30 22:17:11 17° 90° (E) 22:19:50 437.425
VELOX 1 12 Dec 22:19:57 22:20:14 10° 49° (NE) 22:20:31 145.980
TIGRISAT 12 Dec 22:22:28 22:26:42 53° 101° (E) 22:30:59 435.000
UNISAT 6 12 Dec 22:25:03 22:29:20 61° 101° (E) 22:33:40 437.425
LO-87 12 Dec 22:30:59 22:34:27 55° 72° (ENE) 22:37:56 145.935 - 145.965
BEESAT 3 12 Dec 22:37:49 22:41:46 57° 318° (NW) 22:45:44 437.485
Max Valier Satellite 12 Dec 22:55:35 22:56:33 11° 274° (W) 22:57:32 145.860
AIST 2D 12 Dec 23:05:52 23:08:36 20° 92° (E) 23:11:18 435.315
BEESAT 2 12 Dec 23:11:38 23:15:42 79° 315° (NW) 23:19:47 435.950
SPROUT 12 Dec 23:15:02 23:18:55 35° 66° (ENE) 23:22:48 437.525
SO-50 12 Dec 23:15:33 23:19:52 37° 32° (NNE) 23:24:14 436.795
PCSat 12 Dec 23:16:38 23:20:42 21° 344° (NNW) 23:24:45 145.827
NANOSAT C BR1 12 Dec 23:21:05 23:21:59 11° 85° (E) 23:22:54 145.865
DX 1 12 Dec 23:22:57 23:23:35 10° 49° (NE) 23:24:12 434.975-435.025
AO-85 12 Dec 23:23:40 23:27:28 46° 125° (SE) 23:31:31 145.980
EO-79 12 Dec 23:33:19 23:35:56 16° 89° (E) 23:38:33 145.935-145.965
FO-29 12 Dec 23:36:47 23:42:00 22° 315° (NW) 23:46:53 435.910
ESTCUBE 1 12 Dec 23:44:05 23:48:20 39° 263° (W) 23:52:38 437.505/2401.250
PRISM 12 Dec 23:48:46 23:52:53 64° 289° (WNW) 23:56:56 437.425
VELOX 1 12 Dec 23:51:23 23:55:43 52° 68° (ENE) 00:00:04 145.980
RS-15 12 Dec 23:53:51 00:05:54 85° 230° (SW) 00:17:16 29.354- 29.394
POLYITAN 1 12 Dec 23:55:02 23:58:32 25° 93° (E) 00:02:00 437.675
TIGRISAT 12 Dec 23:59:46 00:03:07 23° 299° (WNW) 00:06:31 435.000
UNISAT 6 13 Dec 00:02:31 00:05:42 20° 301° (WNW) 00:08:54 437.425
LO-87 13 Dec 00:06:07 00:08:11 15° 270° (W) 00:10:15 145.935 - 145.965
BEESAT 3 13 Dec 00:17:07 00:20:03 19° 340° (NNW) 00:23:00 437.485
QB50P2 13 Dec 00:20:11 00:24:16 46° 99° (E) 00:28:20 145.880/145.840
50 SAT 13 Dec 00:28:32 00:31:11 24° 65° (ENE) 00:33:49 437.505
DUCHIFAT 1 13 Dec 00:29:14 00:33:12 40° 98° (E) 00:37:10 145.980
AIST 2D 13 Dec 00:38:34 00:41:55 38° 291° (WNW) 00:45:14 435.315
UKube-1 13 Dec 00:44:26 00:48:13 30° 63° (ENE) 00:52:01 .
BEESAT 2 13 Dec 00:50:45 00:54:01 22° 336° (NNW) 00:57:17 435.950
SPROUT 13 Dec 00:51:03 00:54:50 31° 265° (W) 00:58:39 437.525
NANOSAT C BR1 13 Dec 00:54:12 00:58:25 79° 102° (ESE) 01:02:37 145.865
DX 1 13 Dec 00:54:34 00:58:50 54° 69° (ENE) 01:03:08 434.975-435.025
SO-50 13 Dec 00:56:00 01:00:33 56° 233° (SW) 01:05:09 436.795
PCSat 13 Dec 01:02:14 01:06:03 19° 10° (N) 01:09:52 145.827
AO-85 13 Dec 01:04:13 01:08:00 36° 327° (NNW) 01:12:03 145.980
EO-79 13 Dec 01:07:58 01:12:10 70° 288° (WNW) 01:16:21 145.935-145.965
AO-91 13 Dec 01:15:08 01:17:15 15° 88° (E) 01:19:16 145.960
BUGSAT 1 13 Dec 01:19:09 01:22:50 34° 97° (E) 01:26:32 437.445
PRISM 13 Dec 01:26:15 01:27:20 11° 309° (NW) 01:28:25 437.425
MOZHAYETS 4 13 Dec 01:27:53 01:31:20 22° 58° (ENE) 01:34:49
VELOX 1 13 Dec 01:28:52 01:32:26 23° 268° (W) 01:36:01 145.980
BEESAT 13 Dec 01:28:53 01:32:11 19° 55° (NE) 01:35:29 436.000
POLYITAN 1 13 Dec 01:30:28 01:34:29 44° 292° (WNW) 01:38:30 437.675
Oscar 19 13 Dec 01:40:41 01:45:28 35° 96° (E) 01:50:14 437.125/150
ITUPSAT 1 13 Dec 01:54:40 01:58:42 28° 60° (ENE) 02:02:45 437.325
QB50P2 13 Dec 01:56:23 01:59:51 25° 298° (WNW) 02:03:17 145.880/145.840
BEESAT 3 13 Dec 01:56:41 01:58:58 15° 4° (N) 02:01:16 437.485
50 SAT 13 Dec 02:00:20 02:03:05 26° 264° (W) 02:05:50 437.505
Gurwin Techsat 1B 13 Dec 02:04:11 02:09:14 41° 97° (E) 02:14:15 435.225
DUCHIFAT 1 13 Dec 02:05:11 02:08:44 27° 297° (WNW) 02:12:17 145.980
AO-7 13 Dec 02:06:17 02:09:09 12° 78° (ENE) 02:12:01 .
RS-15 13 Dec 02:07:10 02:16:44 31° 256° (WSW) 02:25:57 29.354- 29.394
UKube-1 13 Dec 02:20:06 02:24:09 38° 262° (W) 02:28:14 .
BEESAT 2 13 Dec 02:30:41 02:33:04 15° 360° (N) 02:35:26 435.950
NANOSAT C BR1 13 Dec 02:31:00 02:33:36 16° 303° (WNW) 02:36:12 145.865
DX 1 13 Dec 02:31:56 02:35:20 22° 268° (W) 02:38:45 434.975-435.025
SO-50 13 Dec 02:39:47 02:40:05 10° 252° (WSW) 02:40:23 436.795
CUBESAT XI-V 13 Dec 02:44:28 02:48:29 29° 62° (ENE) 02:52:32 437.345
EO-79 13 Dec 02:45:37 02:47:11 12° 307° (NW) 02:48:44 145.935-145.965
PCSat 13 Dec 02:45:59 02:51:01 36° 35° (NE) 02:56:00 145.827
AO-85 13 Dec 02:46:36 02:49:35 18° 352° (N) 02:52:42 145.980
ITAMSAT 1 13 Dec 02:50:32 02:51:38 11° 82° (E) 02:52:44 435.822/435.867
AO-91 13 Dec 02:50:36 02:54:10 51° 290° (WNW) 02:57:31 145.960
BUGSAT 1 13 Dec 02:54:38 02:58:10 30° 295° (WNW) 03:01:41 437.445
YUBILEINY 13 Dec 03:01:54 03:10:02 44° 86° (E) 03:18:12 435.215
MOZHAYETS 4 13 Dec 03:03:35 03:08:06 64° 258° (WSW) 03:12:41
BEESAT 13 Dec 03:04:39 03:09:25 82° 257° (WSW) 03:14:12 436.000
Oscar 19 13 Dec 03:19:59 03:24:53 43° 296° (WNW) 03:29:47 437.125/150
ITUPSAT 1 13 Dec 03:31:43 03:36:20 50° 260° (W) 03:40:59 437.325
KKS-1 13 Dec 03:33:34 03:36:59 22° 58° (ENE) 03:40:23 437.445
BEESAT 3 13 Dec 03:34:23 03:37:45 25° 28° (NNE) 03:41:04 437.485
Gurwin Techsat 1B 13 Dec 03:44:16 03:49:10 38° 297° (WNW) 03:54:03 435.225
AO-7 13 Dec 03:55:56 04:04:05 52° 101° (ESE) 04:12:12 .
BEESAT 2 13 Dec 04:08:54 04:12:08 22° 23° (NNE) 04:15:20 435.950
M-CUBED/EXP-1 PRIME 13 Dec 04:12:50 04:17:21 50° 105° (ESE) 04:21:39 437.505
CUBESAT XI-V 13 Dec 04:21:12 04:25:41 46° 261° (W) 04:30:14 437.345
STARS 13 Dec 04:22:26 04:26:04 26° 61° (ENE) 04:29:42 437.465
ITAMSAT 1 13 Dec 04:27:01 04:32:11 62° 103° (ESE) 04:37:18 435.822/435.867
AO-85 13 Dec 04:28:06 04:31:29 21° 17° (NNE) 04:35:04 145.980
PCSat 13 Dec 04:29:23 04:34:46 64° 238° (WSW) 04:40:08 145.827
FO-29 13 Dec 04:45:01 04:47:26 12° 31° (NNE) 04:49:49 435.910
BEESAT 13 Dec 04:45:46 04:47:57 13° 274° (W) 04:50:10 436.000
DOVE 4 13 Dec 04:49:04 04:52:56 25° 91° (E) 04:56:36 437.250
YUBILEINY 13 Dec 04:58:00 05:06:40 57° 289° (WNW) 05:15:25 435.215
Oscar 19 13 Dec 05:02:20 05:02:58 10° 317° (NW) 05:03:37 437.125/150
KKS-1 13 Dec 05:08:44 05:13:10 62° 258° (WSW) 05:17:37 437.445
BEESAT 3 13 Dec 05:11:43 05:15:43 79° 228° (SW) 05:19:37 437.485
STRAND 1 13 Dec 05:31:05 05:34:54 22° 55° (NE) 05:38:44 437.568
CUTE-I 13 Dec 05:38:47 05:41:58 16° 86° (E) 05:45:07 437.470
BEESAT 2 13 Dec 05:46:23 05:50:28 76° 45° (NE) 05:54:29 435.950
M-CUBED/EXP-1 PRIME 13 Dec 05:47:30 05:51:29 29° 305° (NW) 05:55:20 437.505
AO-7 13 Dec 05:48:56 05:56:56 52° 304° (WNW) 06:04:56 .
LilacSat-2 13 Dec 05:54:16 05:57:20 22° 92° (E) 06:00:24 437.200
STARS 13 Dec 05:57:56 06:02:11 48° 260° (W) 06:06:28 437.465
ITAMSAT 1 13 Dec 06:07:03 06:11:18 26° 303° (WNW) 06:15:33 435.822/435.867
AO-85 13 Dec 06:08:22 06:12:50 50° 39° (NE) 06:17:39 145.980
XW-2D 13 Dec 06:11:14 06:14:42 30° 95° (E) 06:18:07 145.860 - 145.880
PCSat 13 Dec 06:14:52 06:17:09 13° 257° (WSW) 06:19:25 145.827
FO-29 13 Dec 06:23:33 06:30:14 32° 54° (NE) 06:36:52 435.910
KAITUO 1B 13 Dec 06:24:55 06:28:19 30° 95° (E) 06:31:42 145.475/437.950
NUDT-PHONESAT 13 Dec 06:24:57 06:28:15 28° 95° (E) 06:31:33 437.300
DOVE 4 13 Dec 06:26:23 06:30:54 47° 292° (WNW) 06:35:08 437.250
XW-2B 13 Dec 06:26:54 06:30:35 41° 98° (E) 06:34:15 145.730 - 145.750
XW-2F 13 Dec 06:40:47 06:44:35 55° 100° (E) 06:48:21 145.980 - 146.000
CUTE 1.7 + AOD 2 13 Dec 06:41:27 06:44:37 20° 90° (E) 06:47:46 437.475
HO-68 13 Dec 06:42:02 06:48:03 28° 91° (E) 06:54:01 435.675
BEESAT 3 13 Dec 06:50:57 06:52:33 12° 249° (WSW) 06:54:09 437.485
XW-2C 13 Dec 06:54:04 06:57:57 82° 101° (E) 07:01:49 145.795 - 145.815
YUBILEINY 13 Dec 07:00:11 07:05:54 18° 317° (NW) 07:11:40 435.215
CUBEBUG 2 13 Dec 07:08:08 07:11:26 22° 92° (E) 07:14:46 437.445
STRAND 1 13 Dec 07:08:27 07:13:35 78° 255° (WSW) 07:18:44 437.568
UWE-3 13 Dec 07:12:37 07:15:09 15° 88° (E) 07:17:42 435.000/436.395/437.385
CUTE-I 13 Dec 07:17:28 07:22:51 85° 106° (ESE) 07:28:10 437.470
BEESAT 2 13 Dec 07:24:58 07:27:43 18° 245° (WSW) 07:30:27 435.950
LilacSat-2 13 Dec 07:28:05 07:31:47 43° 291° (WNW) 07:35:29 437.200
XW-2A 13 Dec 07:31:44 07:33:47 15° 90° (E) 07:35:48 145.665 - 145.685
ZACube-1 13 Dec 07:42:01 07:44:50 17° 89° (E) 07:47:39 437.345
